EW7774 Weather Reports


Display with metric or nautical units.
time (UTC)temp
F
wind
direction
speed
MPH
gust
MPH
rain 1hr
in
rain 24hr
in
rain mn
in
humidity
%
barometer
mb
20260506232522 67 0.0 0.0 0.00 0.27 0.27 82 1008.9
20260506232345 68 0.0 0.0 0.00 0.27 0.27 83 1008.4
20260506232024 68 0.0 0.0 0.00 0.27 0.27 82 1008.8
20260506231837 68 0.0 0.0 0.00 0.27 0.27 83 1008.4
20260506231543 68 0.0 0.0 0.00 0.27 0.27 82 1008.8
20260506231335 68 0.0 0.0 0.00 0.27 0.27 82 1008.1
20260506231022 68 0.0 0.0 0.00 0.27 0.27 82 1008.6
20260506230849 68 198 0.0 0.0 0.00 0.27 0.27 82 1008.1
20260506230522 68 0.0 0.0 0.00 0.27 0.27 82 1008.6
20260506230038 68 0 0.0 0.0 0.00 0.27 0.27 82 1008.6
20260506225913 68 198 0.0 0.0 0.00 0.27 0.27 82 1008.1
20260506225524 68 0 0.0 0.0 0.00 0.27 0.27 81 1008.5
20260506225343 69 183 0.0 0.0 0.00 0.27 0.27 82 1008.1
20260506225023 68 0 0.0 0.0 0.00 0.27 0.27 82 1008.5
20260506224835 69 183 0.0 0.0 0.00 0.27 0.27 83 1008.0
20260506224547 68 0 0.0 0.0 0.00 0.27 0.27 82 1008.4
20260506224355 69 183 0.0 0.0 0.00 0.27 0.27 83 1008.1
20260506224024 68 0 0.0 0.0 0.00 0.27 0.27 81 1008.5
20260506223846 69 183 0.0 0.0 0.00 0.27 0.27 82 1008.1
20260506223522 68 0 0.0 0.0 0.00 0.27 0.27 81 1008.6
20260506223345 69 183 0.0 0.0 0.00 0.27 0.27 81 1008.0
20260506223037 68 0 0.0 2.0 0.00 0.27 0.27 80 1008.4
20260506222837 69 169 0.0 2.0 0.00 0.27 0.27 81 1008.0
20260506222523 68 0 0.0 2.0 0.00 0.27 0.27 81 1008.4
20260506222353 69 176 0.0 2.0 0.00 0.27 0.27 81 1007.9
20260506222023 68 0 0.0 2.0 0.00 0.27 0.27 80 1008.4
20260506221852 69 177 0.0 2.0 0.00 0.27 0.27 81 1007.9
20260506221536 68 0 0.0 2.0 0.00 0.27 0.27 80 1008.3
20260506221345 69 177 0.0 2.0 0.00 0.27 0.27 82 1007.9
20260506221025 68 0 0.0 2.0 0.00 0.27 0.27 80 1008.3
20260506220843 69 178 0.0 0.0 0.00 0.27 0.27 81 1008.0
20260506220522 68 0 0.0 3.0 0.00 0.27 0.27 81 1008.4
20260506220335 69 159 0.0 1.0 0.00 0.27 0.27 80 1007.9
20260506220044 68 0 0.0 3.0 0.00 0.27 0.27 81 1008.3
20260506215853 69 159 0.0 3.0 0.00 0.27 0.27 82 1007.9
20260506215524 68 0 0.0 3.0 0.00 0.27 0.27 81 1008.3
20260506215330 69 173 0.0 0.0 0.00 0.27 0.27 81 1008.0
20260506215024 68 0 0.0 3.0 0.00 0.27 0.27 80 1008.3
20260506214846 69 174 0.0 3.0 0.00 0.27 0.27 81 1008.1
20260506214537 68 0 0.0 3.0 0.00 0.27 0.27 80 1008.4
20260506214339 69 169 0.0 3.0 0.00 0.27 0.27 81 1008.0
20260506214026 68 0 0.0 1.0 0.00 0.27 0.27 80 1008.4
20260506213834 69 166 0.0 1.0 0.00 0.27 0.27 81 1007.9
20260506213522 68 0 0.0 2.0 0.00 0.27 0.27 80 1008.3
20260506213349 69 179 0.0 2.0 0.00 0.27 0.27 80 1008.0
20260506213037 68 0 0.0 8.0 0.00 0.27 0.27 79 1008.3
20260506212840 69 142 0.0 7.0 0.00 0.27 0.27 80 1007.8
20260506212527 68 0 0.0 8.0 0.00 0.27 0.27 80 1008.2
20260506212338 69 168 2.0 7.0 0.00 0.27 0.27 80 1007.8
20260506212025 68 252 0.0 4.0 0.00 0.27 0.27 80 1008.2
20260506211855 69 183 1.0 4.0 0.00 0.27 0.27 80 1007.8
20260506211542 68 0 0.0 4.0 0.00 0.27 0.27 80 1008.1
20260506211346 69 190 0.0 4.0 0.00 0.27 0.27 80 1007.7
20260506211023 68 0 0.0 5.0 0.00 0.27 0.27 80 1008.0
20260506210902 69 175 1.0 5.0 0.00 0.27 0.27 80 1007.7
20260506210525 68 0 0.0 9.0 0.00 0.27 0.27 79 1008.0
20260506210331 69 173 0.0 8.0 0.00 0.27 0.27 80 1007.7
20260506210037 68 0 1.0 9.0 0.00 0.27 0.27 79 1007.9
20260506205835 69 171 2.0 8.0 0.00 0.27 0.27 80 1007.6
20260506205524 68 202 0.0 8.0 0.00 0.27 0.27 80 1007.8
20260506205330 69 188 0.0 7.0 0.00 0.27 0.27 80 1007.3
20260506205024 68 0 0.0 8.0 0.00 0.27 0.27 80 1007.8
20260506204831 69 212 1.0 7.0 0.00 0.27 0.27 80 1007.4
20260506204539 68 0 0.0 6.0 0.00 0.27 0.27 80 1007.8
20260506204330 68 156 0.0 6.0 0.00 0.27 0.27 81 1007.5
20260506204024 68 0 0.0 6.0 0.00 0.27 0.27 80 1007.9
20260506203829 68 179 1.0 5.0 0.00 0.27 0.27 80 1007.5
20260506203524 68 0 0.0 4.0 0.00 0.27 0.27 79 1007.7
20260506203350 68 169 0.0 4.0 0.00 0.27 0.27 80 1007.4
20260506203037 68 0 0.0 5.0 0.00 0.27 0.27 79 1007.7
20260506202845 69 201 1.0 5.0 0.00 0.27 0.27 80 1007.3
20260506202524 68 0 0.0 5.0 0.00 0.27 0.27 80 1007.7
20260506202406 69 160 1.0 5.0 0.00 0.27 0.27 80 1007.6
20260506202025 68 0 0.0 8.0 0.00 0.27 0.27 79 1008.0
20260506201841 69 159 0.0 7.0 0.00 0.27 0.27 79 1007.6
20260506201543 68 232 0.0 8.0 0.00 0.27 0.27 79 1007.9
20260506201345 69 269 2.0 7.0 0.00 0.27 0.27 80 1007.6
20260506201024 68 0 0.0 4.0 0.00 0.27 0.27 80 1007.9
20260506200906 69 5 1.0 4.0 0.00 0.27 0.27 80 1007.5
20260506200524 68 0 0.0 4.0 0.00 0.27 0.27 79 1008.0
20260506200343 69 211 0.0 3.0 0.00 0.27 0.27 80 1007.6
20260506200041 68 0 0.0 3.0 0.00 0.27 0.27 80 1007.9
20260506195902 68 185 0.0 3.0 0.00 0.27 0.27 80 1007.6
20260506195526 68 0 0.0 6.0 0.00 0.27 0.27 80 1008.0
20260506195357 68 230 0.0 5.0 0.00 0.27 0.27 80 1007.6
20260506195025 68 0 0.0 7.0 0.00 0.27 0.27 79 1007.9
20260506194835 68 200 1.0 6.0 0.00 0.27 0.27 80 1007.5
20260506194544 68 0 0.0 7.0 0.00 0.27 0.27 80 1008.0
20260506194356 68 165 2.0 6.0 0.00 0.27 0.27 81 1007.7
20260506194028 68 0 0.0 3.0 0.00 0.27 0.27 80 1008.2
20260506193852 68 221 0.0 3.0 0.00 0.27 0.27 79 1007.7
20260506193524 68 253 0.0 4.0 0.00 0.27 0.27 81 1008.1
20260506193348 68 173 0.0 4.0 0.00 0.27 0.27 81 1007.6
20260506193043 67 216 0.0 7.0 0.00 0.27 0.27 81 1008.0
20260506192845 68 193 0.0 6.0 0.00 0.27 0.27 80 1007.7
20260506192524 67 0 0.0 7.0 0.00 0.27 0.27 80 1008.1
20260506192345 68 215 1.0 6.0 0.00 0.27 0.27 80 1007.8
20260506192024 67 0 0.0 8.0 0.00 0.27 0.27 80 1008.1
20260506191843 68 109 1.0 7.0 0.00 0.27 0.27 82 1007.7
20260506191544 67 0 1.0 8.0 0.00 0.27 0.27 79 1008.2
20260506191340 68 181 1.0 7.0 0.00 0.27 0.27 81 1007.7
20260506191025 67 0 2.0 8.0 0.00 0.27 0.27 82 1008.2
20260506190836 67 125 1.0 4.0 0.00 0.27 0.27 82 1007.8
20260506190524 67 0 0.0 4.0 0.00 0.27 0.27 82 1008.3
20260506190336 67 194 0.0 4.0 0.00 0.27 0.27 82 1007.8
20260506190044 66 0 0.0 8.0 0.00 0.27 0.27 81 1008.2
20260506185834 67 188 0.0 7.0 0.00 0.27 0.27 81 1007.9
20260506185524 66 0 0.0 8.0 0.00 0.27 0.27 81 1008.3
20260506185336 67 258 0.0 7.0 0.00 0.27 0.27 82 1008.0
20260506185025 66 0 0.0 2.0 0.00 0.27 0.27 82 1008.3
20260506184833 67 264 0.0 2.0 0.00 0.27 0.27 84 1008.1
20260506184542 66 0 0.0 5.0 0.00 0.27 0.27 82 1008.5
20260506184335 66 194 0.0 5.0 0.00 0.27 0.27 82 1008.0
20260506184024 66 0 0.0 5.0 0.00 0.27 0.27 82 1008.5
20260506183834 66 217 0.0 5.0 0.00 0.27 0.27 84 1008.0
20260506183527 66 0 0.0 4.0 0.00 0.27 0.27 84 1008.5
20260506183334 66 237 0.0 4.0 0.00 0.27 0.27 85 1008.1
20260506183041 65 0 0.0 0.0 0.00 0.27 0.27 83 1008.7
20260506182832 66 237 0.0 0.0 0.00 0.27 0.27 83 1008.4
20260506182523 65 0 0.0 7.0 0.00 0.27 0.27 84 1008.8
20260506182327 66 240 0.0 7.0 0.00 0.27 0.27 84 1008.4
20260506182026 65 0 0.0 7.0 0.00 0.27 0.27 84 1008.7
20260506181850 66 219 0.0 7.0 0.00 0.27 0.27 84 1008.3
20260506181552 65 183 0.0 7.0 0.00 0.27 0.27 83 1008.6
20260506181345 65 201 1.0 6.0 0.00 0.27 0.27 85 1008.3
20260506181026 65 0 0.0 8.0 0.00 0.27 0.27 83 1008.6
20260506180846 65 228 1.0 7.0 0.00 0.27 0.27 84 1008.3
20260506180526 64 0 0.0 8.0 0.00 0.27 0.27 84 1008.7
20260506180344 65 219 2.0 7.0 0.00 0.27 0.27 84 1008.4
20260506180037 64 266 0.0 8.0 0.00 0.27 0.27 84 1008.8
20260506175846 65 192 0.0 7.0 0.00 0.27 0.27 84 1008.6
20260506175528 64 226 1.0 8.0 0.00 0.27 0.27 85 1009.0
20260506175347 65 282 1.0 7.0 0.00 0.27 0.27 86 1008.5
20260506175024 64 0 0.0 8.0 0.00 0.27 0.27 85 1008.9
20260506174842 64 228 1.0 7.0 0.00 0.27 0.27 85 1008.5
20260506174542 64 0 0.0 12.0 0.00 0.27 0.27 85 1009.0
20260506174339 64 215 0.0 5.0 0.00 0.27 0.27 85 1008.6
20260506174024 64 6 0.0 12.0 0.00 0.27 0.27 86 1009.0
20260506173835 64 226 1.0 12.0 0.00 0.27 0.27 86 1008.6
20260506173526 63 0 1.0 12.0 0.00 0.27 0.27 87 1009.0
20260506173339 64 166 0.0 6.0 0.00 0.27 0.27 87 1008.6
20260506173043 63 0 1.0 7.0 0.00 0.27 0.27 87 1009.0
20260506172837 64 306 2.0 6.0 0.00 0.27 0.27 89 1008.6
20260506172525 63 0 1.0 6.0 0.00 0.27 0.27 87 1009.1
20260506172333 63 142 1.0 6.0 0.00 0.27 0.27 88 1008.7
20260506172024 63 141 0.0 6.0 0.00 0.27 0.27 88 1009.1
20260506171911 63 183 0.0 6.0 0.00 0.27 0.27 88 1008.6
20260506171546 63 0 0.0 12.0 0.00 0.27 0.27 87 1009.1
20260506171347 63 230 0.0 11.0 0.00 0.27 0.27 88 1008.7
20260506171025 62 0 1.0 12.0 0.00 0.27 0.27 88 1009.2
20260506170843 63 219 2.0 11.0 0.00 0.27 0.27 88 1008.8
20260506170523 62 255 0.0 9.0 0.00 0.27 0.27 89 1009.3
20260506170404 63 115 2.0 8.0 0.00 0.27 0.27 89 1008.8
20260506170041 62 0 1.0 8.0 0.00 0.27 0.27 89 1009.2
20260506165839 63 167 1.0 7.0 0.00 0.27 0.27 89 1008.9
20260506165524 62 0 0.0 6.0 0.00 0.27 0.27 89 1009.4
20260506165401 63 260 1.0 6.0 0.00 0.27 0.27 90 1009.0
20260506165024 62 0 0.0 13.0 0.00 0.27 0.27 91 1009.2
20260506164839 63 198 2.0 12.0 0.00 0.27 0.27 91 1008.9
20260506164538 62 0 0.0 13.0 0.00 0.27 0.27 90 1009.2
20260506164338 62 244 0.0 12.0 0.00 0.27 0.27 90 1008.9
20260506164024 62 223 1.0 13.0 0.00 0.27 0.27 90 1009.1
20260506163855 62 236 0.0 8.0 0.00 0.27 0.27 90 1008.9
20260506163524 61 0 0.0 11.0 0.00 0.27 0.27 90 1009.2
20260506163333 62 232 1.0 10.0 0.00 0.27 0.27 91 1009.0
20260506163043 61 0 0.0 11.0 0.00 0.27 0.27 91 1009.2
20260506162851 62 173 0.0 10.0 0.00 0.27 0.27 92 1009.0
20260506162525 61 185 1.0 8.0 0.00 0.27 0.27 91 1009.4
20260506162347 61 164 1.0 7.0 0.00 0.27 0.27 92 1009.0
20260506162025 61 0 0.0 3.0 0.01 0.27 0.27 92 1009.3
20260506161847 61 179 0.0 3.0 0.01 0.27 0.27 92 1009.0
20260506161537 61 0 0.0 3.0 0.01 0.27 0.27 91 1009.3
20260506161347 61 181 0.0 3.0 0.01 0.27 0.27 92 1008.9
20260506161024 61 17 0.0 9.0 0.01 0.27 0.27 92 1009.3
20260506160843 61 184 0.0 8.0 0.01 0.27 0.27 93 1009.1
20260506160524 60 0 0.0 9.0 0.02 0.27 0.27 92 1009.4
20260506160343 61 234 1.0 8.0 0.02 0.27 0.27 93 1009.0
20260506160041 60 0 0.0 9.0 0.03 0.27 0.27 92 1009.4
20260506155844 61 196 1.0 8.0 0.03 0.27 0.27 93 1009.0
20260506155524 60 139 0.0 9.0 0.03 0.27 0.27 92 1009.4
20260506155401 61 202 1.0 8.0 0.03 0.27 0.27 93 1009.0
20260506155024 60 0 1.0 11.0 0.03 0.27 0.27 92 1009.5
20260506154840 60 282 0.0 10.0 0.03 0.27 0.27 93 1009.2
20260506154548 60 0 2.0 11.0 0.03 0.27 0.27 93 1009.5
20260506154336 60 196 3.0 10.0 0.03 0.27 0.27 94 1009.2
20260506154024 60 191 1.0 11.0 0.04 0.27 0.27 93 1009.4
20260506153835 60 176 1.0 10.0 0.04 0.27 0.27 93 1009.1
20260506153523 59 182 0.0 5.0 0.04 0.27 0.27 93 1009.6
20260506153335 60 179 1.0 5.0 0.04 0.27 0.27 93 1009.2
20260506153038 59 0 1.0 7.0 0.04 0.27 0.27 93 1009.7
20260506152833 60 333 1.0 6.0 0.04 0.27 0.27 93 1009.4
20260506152525 59 0 0.0 8.0 0.04 0.27 0.27 93 1009.7
20260506152330 60 229 1.0 7.0 0.05 0.27 0.27 93 1009.3
20260506152024 59 0 0.0 8.0 0.04 0.26 0.26 93 1009.6
20260506151832 60 183 0.0 7.0 0.04 0.26 0.26 93 1009.4
20260506151539 59 203 0.0 9.0 0.04 0.26 0.26 92 1009.6
20260506151332 60 202 0.0 8.0 0.04 0.26 0.26 93 1009.5
20260506151024 59 0 1.0 9.0 0.05 0.26 0.26 92 1009.8
20260506150831 60 175 2.0 8.0 0.06 0.26 0.26 93 1009.5
20260506150527 59 0 0.0 8.0 0.05 0.25 0.25 92 1009.9
20260506150348 60 233 0.0 7.0 0.05 0.25 0.25 93 1009.6
20260506150038 59 0 0.0 8.0 0.05 0.24 0.24 92 1009.8
20260506145847 60 175 1.0 7.0 0.05 0.24 0.24 93 1009.7
20260506145525 59 0 1.0 8.0 0.06 0.24 0.24 93 1010.0
20260506145325 60 166 1.0 7.0 0.06 0.24 0.24 93 1009.8
20260506145025 59 0 0.0 5.0 0.07 0.24 0.24 92 1010.1
20260506144831 60 193 0.0 5.0 0.07 0.24 0.24 93 1010.0
20260506144541 59 0 0.0 5.0 0.08 0.24 0.24 93 1010.2
20260506144331 60 111 1.0 5.0 0.09 0.24 0.24 93 1010.0
20260506144024 59 0 0.0 8.0 0.09 0.23 0.23 92 1010.2
20260506143851 60 175 0.0 7.0 0.09 0.23 0.23 93 1010.0
20260506143524 59 0 0.0 8.0 0.10 0.23 0.23 92 1010.2
20260506143348 60 173 0.0 8.0 0.11 0.23 0.23 93 1010.0
20260506143041 59 243 0.0 8.0 0.11 0.23 0.23 92 1010.3
20260506142848 60 178 0.0 7.0 0.12 0.23 0.23 93 1009.9
20260506142526 59 0 0.0 3.0 0.13 0.23 0.23 92 1010.2
20260506142344 60 208 0.0 0.0 0.12 0.22 0.22 93 1010.0
20260506142025 59 0 0.0 4.0 0.14 0.22 0.22 92 1010.2
20260506141845 60 225 0.0 4.0 0.15 0.22 0.22 93 1009.9
20260506141539 59 0 0.0 7.0 0.16 0.22 0.22 92 1010.2
20260506141401 60 296 0.0 6.0 0.16 0.22 0.22 93 1009.9
20260506141027 59 0 0.0 7.0 0.15 0.21 0.21 92 1010.2
20260506140838 60 195 1.0 6.0 0.14 0.20 0.20 92 1009.9
20260506140524 59 0 0.0 3.0 0.14 0.20 0.20 92 1010.0
20260506140334 60 194 0.0 2.0 0.14 0.20 0.20 92 1009.9
20260506140039 59 0 0.0 9.0 0.13 0.19 0.19 92 1010.2
20260506135850 60 155 0.0 8.0 0.14 0.19 0.19 92 1009.9
20260506135524 59 0 1.0 9.0 0.13 0.18 0.18 92 1010.1
20260506135347 60 180 2.0 8.0 0.13 0.18 0.18 92 1009.9
20260506135024 60 182 0.0 9.0 0.13 0.17 0.17 91 1010.0
20260506134844 60 172 0.0 8.0 0.13 0.17 0.17 92 1009.9
20260506134538 60 0 0.0 7.0 0.12 0.16 0.16 91 1010.3
20260506134403 60 171 1.0 6.0 0.11 0.15 0.15 92 1010.1
20260506134025 60 0 0.0 5.0 0.11 0.14 0.14 91 1010.3
20260506133840 60 174 0.0 5.0 0.11 0.14 0.14 92 1010.1
20260506133529 60 0 0.0 5.0 0.10 0.13 0.13 91 1010.4
20260506133340 61 159 0.0 3.0 0.09 0.12 0.12 92 1010.2
20260506133039 60 0 0.0 3.0 0.10 0.12 0.12 91 1010.5
20260506132838 61 189 0.0 0.0 0.09 0.11 0.11 92 1010.3
20260506132525 60 0 0.0 7.0 0.08 0.10 0.10 91 1010.5
20260506132338 61 165 0.0 6.0 0.07 0.09 0.09 91 1010.4
20260506132024 60 0 0.0 7.0 0.07 0.08 0.08 90 1010.7
20260506131835 61 164 1.0 6.0 0.06 0.07 0.07 91 1010.5
20260506131552 60 0 0.0 4.0 0.06 0.06 0.06 90 1010.8
20260506131412 61 27 0.0 1.0 0.06 0.06 0.06 91 1010.6
20260506131024 60 0 0.0 3.0 0.06 0.06 0.06 90 1010.8
20260506130909 61 185 327.0 3.0 0.06 0.06 0.06 91 1010.5
20260506130527 60 0 0.0 3.0 0.06 0.06 0.06 90 1010.5
20260506130406 61 0.0 0.0 0.06 0.06 0.06 90 1010.2
20260506130041 61 0 0.0 0.0 0.06 0.06 0.06 90 1010.4
20260506125903 61 0.0 0.0 0.05 0.05 0.05 90 1010.0
20260506125524 61 0 0.0 0.0 0.05 0.05 0.05 89 1010.1
20260506125339 61 0.0 0.0 0.05 0.05 0.05 89 1010.0
20260506125025 61 0 0.0 0.0 0.04 0.04 0.04 89 1010.2
20260506124836 61 0.0 0.0 0.04 0.04 0.04 89 1009.8
20260506124542 61 0.0 0.0 0.04 0.04 0.04 89 1010.0
20260506124334 62 0.0 0.0 0.03 0.03 0.03 89 1009.7
20260506124024 61 0.0 0.0 0.03 0.03 0.03 88 1009.9
20260506123849 62 0.0 0.0 0.03 0.03 0.03 88 1009.7
20260506123526 61 0.0 0.0 0.03 0.03 0.03 87 1010.0
20260506123345 62 0.0 0.0 0.03 0.03 0.03 87 1009.8
20260506123038 62 0.0 0.0 0.02 0.02 0.02 86 1010.0
20260506122828 62 0.0 0.0 0.02 0.02 0.02 86 1009.8
20260506122524 62 0.0 0.0 0.02 0.02 0.02 85 1010.2
20260506122327 63 0.0 0.0 0.02 0.02 0.02 85 1010.0
20260506122023 62 0.0 0.0 0.01 0.01 0.01 84 1010.1
20260506121850 63 0.0 0.0 0.01 0.01 0.01 83 1009.9
20260506121537 63 0.0 0.0 0.00 0.00 0.00 82 1010.3
20260506121333 63 0.0 0.0 0.00 0.00 0.00 82 1010.1
20260506121025 63 0.0 0.0 0.00 0.00 0.00 81 1010.4
20260506120829 63 0.0 0.0 0.00 0.00 0.00 81 1010.2
20260506120527 63 0.0 0.0 0.00 0.00 0.00 79 1010.5
20260506120409 64 0.0 0.0 0.00 0.00 0.00 80 1010.3
20260506120037 63 0.0 0.0 0.00 0.00 0.00 79 1010.5
20260506115826 64 0.0 0.0 0.00 0.00 0.00 78 1010.4
20260506115525 63 0.0 0.0 0.00 0.00 0.00 78 1010.5
20260506115327 64 0.0 0.0 0.00 0.00 0.00 78 1010.3
20260506115023 64 0.0 0.0 0.00 0.00 0.00 77 1010.4
20260506114830 64 0.0 0.0 0.00 0.00 0.00 78 1010.2
20260506114537 64 0.0 0.0 0.00 0.00 0.00 76 1010.3
20260506114335 65 0.0 0.0 0.00 0.00 0.00 77 1010.2
20260506114026 64 0.0 0.0 0.00 0.00 0.00 75 1010.3
20260506113838 65 0.0 0.0 0.00 0.00 0.00 75 1010.2
20260506113525 64 0.0 0.0 0.00 0.00 0.00 74 1010.3
20260506113334 65 0.0 0.0 0.00 0.00 0.00 74 1010.2
20260506113043 64 0.0 0.0 0.00 0.00 0.00 74 1010.2
20260506112832 65 0.0 0.0 0.00 0.00 0.00 74 1010.0
20260506112524 64 0.0 0.0 0.00 0.00 0.00 74 1010.1
20260506112349 65 0.0 0.0 0.00 0.00 0.00 74 1010.0
20260506112024 64 0.0 0.0 0.00 0.00 0.00 74 1010.0
20260506111846 65 0.0 0.0 0.00 0.00 0.00 74 1009.7
20260506111539 64 0.0 0.0 0.00 0.00 0.00 74 1009.8
20260506111344 65 0.0 0.0 0.00 0.00 0.00 74 1009.6
20260506111028 64 0.0 0.0 0.00 0.00 0.00 73 1009.7
20260506110840 65 0.0 0.0 0.00 0.00 0.00 74 1009.5
20260506110527 64 0.0 0.0 0.00 0.00 0.00 73 1009.7
20260506110343 65 0.0 0.0 0.00 0.00 0.00 74 1009.6
20260506110038 64 0.0 0.0 0.00 0.00 0.00 73 1009.7
20260506105840 65 0.0 0.0 0.00 0.00 0.00 74 1009.5
20260506105524 64 0.0 0.0 0.00 0.00 0.00 74 1009.7
20260506105338 65 0.0 0.0 0.00 0.00 0.00 74 1009.6
20260506105028 64 0.0 0.0 0.00 0.00 0.00 73 1009.7
20260506104833 65 0.0 0.0 0.00 0.00 0.00 74 1009.6
20260506104541 64 0.0 0.0 0.00 0.00 0.00 74 1009.6
20260506104334 65 0.0 0.0 0.00 0.00 0.00 74 1009.3
20260506104025 64 0.0 0.0 0.00 0.00 0.00 74 1009.6
20260506103857 65 0.0 0.0 0.00 0.00 0.00 74 1009.4
20260506103525 64 0.0 0.0 0.00 0.00 0.00 74 1009.5
20260506103359 65 0.0 0.0 0.00 0.00 0.00 74 1009.4
20260506103040 64 0.0 0.0 0.00 0.00 0.00 73 1009.5
20260506102839 65 0.0 0.0 0.00 0.00 0.00 73 1009.4
20260506102525 64 0.0 0.0 0.00 0.00 0.00 73 1009.6
20260506102354 65 0.0 0.0 0.00 0.00 0.00 73 1009.4
20260506102025 64 0.0 0.0 0.00 0.00 0.00 73 1009.4
20260506101853 65 0.0 0.0 0.00 0.00 0.00 73 1009.3
20260506101537 65 0.0 0.0 0.00 0.00 0.00 73 1009.5
20260506101332 65 0.0 0.0 0.00 0.00 0.00 73 1009.4
20260506101024 65 0.0 0.0 0.00 0.00 0.00 72 1009.5
20260506100833 65 0.0 0.0 0.00 0.00 0.00 72 1009.4
20260506100525 65 0.0 0.0 0.00 0.00 0.00 71 1009.4
20260506100335 66 0.0 0.0 0.00 0.00 0.00 72 1009.4
20260506100041 65 0.0 0.0 0.00 0.00 0.00 71 1009.5
20260506095827 66 0.0 0.0 0.00 0.00 0.00 71 1009.4
20260506095524 65 0.0 0.0 0.00 0.00 0.00 71 1009.5
20260506095329 66 0.0 0.0 0.00 0.00 0.00 71 1009.4
20260506095024 65 0.0 0.0 0.00 0.00 0.00 70 1009.4
20260506094830 66 0.0 0.0 0.00 0.00 0.00 71 1009.3
20260506094551 65 0.0 0.0 0.00 0.00 0.00 70 1009.4
20260506094353 66 0.0 0.0 0.00 0.00 0.00 71 1009.4
20260506094028 65 0.0 0.0 0.00 0.00 0.00 70 1009.5
20260506093836 66 0.0 0.0 0.00 0.00 0.00 71 1009.3
20260506093524 65 0.0 0.0 0.00 0.00 0.00 70 1009.5
20260506093333 66 0.0 0.0 0.00 0.00 0.00 70 1009.4
20260506093040 65 0.0 0.0 0.00 0.00 0.00 70 1009.5
20260506092851 66 0.0 0.0 0.00 0.00 0.00 70 1009.5
20260506092525 65 0.0 0.0 0.00 0.00 0.00 69 1009.6
20260506092326 66 0.0 0.0 0.00 0.00 0.00 70 1009.5
20260506092026 65 0.0 0.0 0.00 0.00 0.00 69 1009.6
20260506091849 66 0.0 0.0 0.00 0.00 0.00 70 1009.4
20260506091538 65 0.0 0.0 0.00 0.00 0.00 69 1009.6
20260506091350 66 0.0 0.0 0.00 0.00 0.00 70 1009.4
20260506091025 65 0.0 0.0 0.00 0.00 0.00 69 1009.6
20260506090852 66 0.0 0.0 0.00 0.00 0.00 69 1009.5
20260506090524 65 0.0 0.0 0.00 0.00 0.00 69 1009.6
20260506090333 66 0.0 0.0 0.00 0.00 0.00 69 1009.4
20260506090037 65 0.0 0.0 0.00 0.00 0.00 69 1009.6
20260506085834 66 0.0 0.0 0.00 0.00 0.00 69 1009.3
20260506085524 66 0.0 0.0 0.00 0.00 0.00 68 1009.6
20260506085336 66 0.0 0.0 0.00 0.00 0.00 69 1009.4
20260506085024 66 0.0 0.0 0.00 0.00 0.00 68 1009.7
20260506084838 66 0.0 0.0 0.00 0.00 0.00 69 1009.5
20260506084541 66 0.0 0.0 0.00 0.00 0.00 68 1009.8
20260506084342 66 0.0 0.0 0.00 0.00 0.00 69 1009.6
20260506084025 66 0.0 0.0 0.00 0.00 0.00 68 1009.8
20260506083842 66 0.0 0.0 0.00 0.00 0.00 69 1009.6
20260506083525 66 0.0 0.0 0.00 0.00 0.00 68 1009.8
20260506083342 67 0.0 0.0 0.00 0.00 0.00 68 1009.6
20260506083038 66 0.0 0.0 0.00 0.00 0.00 68 1009.8
20260506082839 67 0.0 0.0 0.00 0.00 0.00 68 1009.5
20260506082527 66 0.0 0.0 0.00 0.00 0.00 68 1009.8
20260506082337 67 0.0 0.0 0.00 0.00 0.00 68 1009.5
20260506082027 66 0.0 0.0 0.00 0.00 0.00 67 1009.8
20260506081832 67 0.0 0.0 0.00 0.00 0.00 68 1009.5
20260506081540 67 0.0 0.0 0.00 0.00 0.00 67 1009.8
20260506081354 67 0.0 0.0 0.00 0.00 0.00 67 1009.5
20260506081025 67 0.0 0.0 0.00 0.00 0.00 66 1009.8
20260506080833 67 0.0 0.0 0.00 0.00 0.00 66 1009.5
20260506080525 67 0.0 0.0 0.00 0.00 0.00 66 1009.8
20260506080335 68 0.0 0.0 0.00 0.00 0.00 66 1009.5
20260506073525 68 0.0 0.0 0.00 0.00 0.00 62 1009.7
20260506073352 69 0.0 0.0 0.00 0.00 0.00 63 1009.2
20260506073039 68 0.0 0.0 0.00 0.00 0.00 63 1009.7
20260506072848 69 0.0 0.0 0.00 0.00 0.00 63 1009.3
20260506072527 68 0.0 0.0 0.00 0.00 0.00 61 1009.7
20260506072347 69 0.0 0.0 0.00 0.00 0.00 62 1009.2
20260506072024 69 0.0 0.0 0.00 0.00 0.00 61 1009.7
20260506071848 69 0.0 0.0 0.00 0.00 0.00 62 1009.4
20260506071541 69 0.0 0.0 0.00 0.00 0.00 61 1009.8
20260506071345 69 0.0 0.0 0.00 0.00 0.00 61 1009.4
20260506071024 69 0.0 0.0 0.00 0.00 0.00 61 1009.8
20260506070841 69 0.0 0.0 0.00 0.00 0.00 61 1009.5
20260506070524 69 0.0 0.0 0.00 0.00 0.00 60 1009.9
20260506070343 69 0.0 0.0 0.00 0.00 0.00 61 1009.5
20260506062350 70 0.0 0.0 0.00 0.00 0.00 59 1009.9
20260506062025 70 0.0 0.0 0.00 0.00 0.00 59 1010.3
20260506061904 70 0.0 0.0 0.00 0.00 0.00 59 1009.8
20260506061537 70 0.0 0.0 0.00 0.00 0.00 58 1010.2
20260506061344 70 0.0 0.0 0.00 0.00 0.00 59 1009.9
20260506061027 70 0.0 0.0 0.00 0.00 0.00 58 1010.2
20260506060900 71 0.0 0.0 0.00 0.00 0.00 59 1009.8
20260506060527 70 0.0 0.0 0.00 0.00 0.00 58 1010.2
20260506060338 71 0.0 0.0 0.00 0.00 0.00 58 1009.8
20260506051026 70 0.0 0.0 0.00 0.00 0.00 56 1010.7
20260506050527 71 0.0 0.0 0.00 0.00 0.00 56 1010.7
20260506045026 71 0.0 0.0 0.00 0.00 0.00 56 1010.8
20260506044541 71 0.0 0.0 0.00 0.00 0.00 55 1010.8
20260506044026 71 0.0 0.0 0.00 0.00 0.00 55 1010.9
20260506043526 71 0.0 0.0 0.00 0.00 0.00 56 1010.8
20260506043037 71 0.0 0.0 0.00 0.00 0.00 55 1010.8
20260506042527 71 0.0 0.0 0.00 0.00 0.00 55 1010.8
20260506042026 71 0.0 0.0 0.00 0.00 0.00 55 1010.8
20260506041543 71 0.0 0.0 0.00 0.00 0.00 55 1010.9
20260506041026 71 0.0 0.0 0.00 0.00 0.00 54 1010.8
20260506040529 71 0.0 0.0 0.00 0.00 0.00 54 1010.8
20260506040042 71 0.0 0.0 0.00 0.00 0.00 54 1010.9
20260506035526 71 0.0 0.0 0.00 0.00 0.00 54 1010.8
20260506035026 71 0.0 0.0 0.00 0.00 0.00 54 1010.7
20260506034539 71 0.0 0.0 0.00 0.00 0.00 53 1010.7
20260506034026 71 0.0 0.0 0.00 0.00 0.00 53 1010.7
20260506033526 71 0.0 0.0 0.00 0.00 0.00 53 1010.7
20260506033039 71 0.0 0.0 0.00 0.00 0.00 52 1010.7
20260506032527 71 0.0 0.0 0.00 0.00 0.00 52 1010.8
20260506032029 71 0.0 0.0 0.00 0.00 0.00 51 1010.9
20260506031538 71 0.0 0.0 0.00 0.00 0.00 51 1010.8
20260506031027 71 0.0 0.0 0.00 0.00 0.00 50 1010.8
20260506030527 72 0.0 0.0 0.00 0.00 0.00 50 1010.7
20260506030044 72 0.0 0.0 0.00 0.00 0.00 50 1010.7
20260506025526 72 0.0 0.0 0.00 0.00 0.00 49 1010.7
20260506025028 72 0.0 0.0 0.00 0.00 0.00 48 1010.5
20260506024550 72 0.0 0.0 0.00 0.00 0.00 48 1010.5
20260506024027 72 0.0 0.0 0.00 0.00 0.00 47 1010.6
20260506023527 72 0.0 0.0 0.00 0.00 0.00 47 1010.6
20260506023040 73 0.0 0.0 0.00 0.00 0.00 47 1010.7
20260506022530 73 0.0 0.0 0.00 0.00 0.00 46 1010.8
20260506022027 73 0.0 0.0 0.00 0.00 0.00 46 1010.7
20260506021538 73 0.0 0.0 0.00 0.00 0.00 46 1010.7
20260506021026 73 0.0 0.0 0.00 0.00 0.00 45 1010.7
20260506020526 73 0.0 0.0 0.00 0.00 0.00 45 1010.6
20260506020037 73 0.0 0.0 0.00 0.00 0.00 44 1010.6
20260506015530 73 0.0 0.0 0.00 0.00 0.00 43 1010.5
20260506015025 73 0.0 0.0 0.00 0.00 0.00 44 1010.5
20260506014545 73 0.0 0.0 0.00 0.00 0.00 44 1010.4
20260506014024 73 0.0 0.0 0.00 0.00 0.00 43 1010.4
20260506013527 73 0.0 0.0 0.00 0.00 0.00 42 1010.4
20260506013045 73 0.0 0.0 0.00 0.00 0.00 42 1010.3
20260506012524 74 0.0 0.0 0.00 0.00 0.00 41 1010.3
20260506012028 74 0.0 0.0 0.00 0.00 0.00 40 1010.2
20260506011543 74 0.0 0.0 0.00 0.00 0.00 39 1010.1
20260506011025 75 0.0 0.0 0.00 0.00 0.00 39 1010.1
20260506010524 75 0.0 0.0 0.00 0.00 0.00 39 1010.0
20260506010040 75 0.0 0.0 0.00 0.00 0.00 38 1010.1
20260506005525 75 0.0 0.0 0.00 0.00 0.00 38 1009.9
20260506005025 75 0.0 0.0 0.00 0.00 0.00 37 1009.9
20260506004538 75 0.0 0.0 0.00 0.00 0.00 37 1009.8
20260506004025 75 0.0 0.0 0.00 0.00 0.00 36 1009.8
20260506003526 75 0.0 0.0 0.00 0.00 0.00 36 1009.7
20260506003039 76 0.0 0.0 0.00 0.00 0.00 35 1009.7
20260506002524 76 0.0 0.0 0.00 0.00 0.00 35 1009.7
20260506002022 76 0.0 0.0 0.00 0.00 0.00 34 1009.7
20260506001546 76 0.0 0.0 0.00 0.00 0.00 33 1009.6
20260506001025 77 0.0 0.0 0.00 0.00 0.00 34 1009.6
20260506000525 77 0.0 0.0 0.00 0.00 0.00 33 1009.5
20260506000043 77 0.0 0.0 0.00 0.00 0.00 35 1009.5
20260505235525 77 0.0 0.0 0.00 0.00 0.00 33 1009.5
20260505235025 77 0.0 0.0 0.00 0.00 0.00 35 1009.4
20260505234548 78 0.0 2.0 0.00 0.00 0.00 34 1009.5
20260505234025 78 0 0.0 11.0 0.00 0.00 0.00 33 1009.2
20260505233525 78 197 2.0 11.0 0.00 0.00 0.00 34 1009.3
20260505233042 78 216 1.0 11.0 0.00 0.00 0.00 32 1009.3